Home > Time Zones > World Clock > Weather > Russia > Perm > Past weeks

Flag for Russia Weather past 2 weeks in Perm, Russia

Now
30 °F

Mostly cloudy.


Feels Like: 20 °F
Forecast: 28 / 33 °F
Wind: 13 mph from South

Location: Perm'/Bolshoe Savino

Current Time: Dec 20, 2014 at 11:22:36 PM

Latest Report: Dec 20, 2014 at 11:00 PM


Visibility: N/A

Pressure: 29.59 "Hg

Humidity: 86%

Dew point: 27 °F

Location of PermLocation

Historic Weather in Perm — Graph

°F

Perm temperature yesterday

Maximum temperature yesterday: 30 °F (at 12:00 AM)
Minimum temperature yesterday: 23 °F (at 5:00 PM)
Average temperature yesterday: 25 °F

Past Weeks' High & Low Weather Summary

 TemperatureHumidityPressure
High37 °F (Dec 13, 3:30 PM)100% (Dec 10, 11:30 PM)30.54 "Hg (Dec 10, 11:30 PM)
Low-22 °F (Dec 6, 9:30 AM)62% (Dec 9, 4:00 AM)29.62 "Hg (Dec 20, 9:30 PM)
Average21 °F87%30.20 "Hg
* Reported Dec 5 10:00 PM — Dec 20 10:00 PM, Perm, Weather by CustomWeather, © 2014

Note: Actual official high and low records may vary slightly from our data, if they occured in-between our weather recording intervals... More about our weather records

Advertising

Perm weather history for previous 24 hours

 ConditionsComfort  
Time TempWeatherWind HumidityBarometerVisibility
10:00 PM
Dec 20
30 °FLight snow. Mostly cloudy.13 mph86%29.62 "Hg5 mi
9:30 PM30 °FLight snow. Mostly cloudy.13 mph86%29.62 "Hg4 mi
9:00 PM30 °FLight snow. Mostly cloudy.13 mph86%29.65 "Hg6 mi
8:30 PM30 °FLight snow. Mostly cloudy.10 mph86%29.65 "HgN/A
8:00 PM28 °FLight snow. Mostly cloudy.10 mph93%29.65 "HgN/A
7:30 PM28 °FLight snow. Mostly cloudy.8 mph93%29.68 "Hg2 mi
7:00 PM28 °FLight snow. Mostly cloudy.8 mph86%29.68 "Hg4 mi
6:30 PM28 °FLight snow. Mostly cloudy.6 mph86%29.68 "Hg5 mi
6:00 PM28 °FLight snow. Mostly cloudy.8 mph86%29.68 "Hg2 mi
5:30 PM28 °FLight snow. Mostly cloudy.6 mph86%29.71 "HgN/A
5:00 PM28 °FLight snow. Mostly cloudy.10 mph86%29.71 "HgN/A
4:30 PM28 °FMostly cloudy.10 mph86%29.71 "HgN/A
4:00 PM28 °FMostly cloudy.13 mph86%29.71 "HgN/A
3:30 PM27 °FMostly cloudy.15 mph93%29.74 "HgN/A
3:00 PM27 °FLight snow. Mostly cloudy.15 mph93%29.74 "Hg6 mi
2:30 PM27 °FLight snow. Overcast.10 mph93%29.74 "HgN/A
2:00 PM27 °FLight snow. Overcast.8 mph93%29.74 "HgN/A
1:30 PM27 °FOvercast.8 mph86%29.77 "HgN/A
1:00 PM25 °FOvercast.6 mph93%29.77 "HgN/A
12:30 PM25 °FOvercast.8 mph93%29.80 "HgN/A
12:00 PM25 °FOvercast.10 mph93%29.80 "HgN/A
11:30 AM23 °FOvercast.8 mph93%29.80 "HgN/A
11:00 AM25 °FLow clouds.8 mph86%29.83 "HgN/A
10:30 AM23 °FOvercast.8 mph93%29.83 "HgN/A
10:00 AM25 °FLight snow. Overcast.8 mph86%29.83 "HgN/A
9:30 AM25 °FLight snow. Overcast.6 mph93%29.83 "HgN/A
9:00 AM23 °FLight snow. Overcast.3 mph93%29.86 "HgN/A
8:30 AM23 °FLight snow. Low clouds.6 mph93%29.86 "HgN/A
8:00 AM23 °FOvercast.6 mph93%29.86 "HgN/A
7:30 AM23 °FLow clouds.8 mph93%29.86 "HgN/A
7:00 AM23 °FLow clouds.6 mph100%29.86 "HgN/A
6:30 AM23 °FLow clouds.6 mph100%29.86 "HgN/A
6:00 AM23 °FLow clouds.1 mph93%29.86 "HgN/A
5:30 AM23 °FLow clouds.6 mph93%29.86 "Hg6 mi
5:00 AM23 °FLow clouds.10 mph93%29.89 "Hg6 mi
4:30 AM23 °FLow clouds.8 mph93%29.89 "HgN/A
4:00 AM23 °FLow clouds.10 mph93%29.89 "HgN/A
3:30 AM23 °FLow clouds.8 mph93%29.89 "HgN/A
3:00 AM23 °FLow clouds.10 mph93%29.89 "HgN/A
2:30 AM23 °FLow clouds.8 mph93%29.86 "HgN/A
1:30 AM23 °FLight snow. Mostly cloudy.6 mph93%29.86 "HgN/A
1:00 AM23 °FLight snow. Mostly cloudy.8 mph93%29.89 "HgN/A
12:30 AM23 °FLight snow. Mostly cloudy.6 mph93%29.89 "HgN/A
12:00 AM23 °FLight snow. Mostly cloudy.3 mph93%29.89 "HgN/A
11:30 PM
Dec 19
23 °FLight snow. Mostly cloudy.6 mph93%29.89 "Hg4 mi
11:00 PM23 °FLight snow. Mostly cloudy.6 mph93%29.89 "Hg3 mi
Weather by CustomWeather, © 2014

See weather overviewHow to use our weather pages